Time,TemperatureF,DewpointF,PressureIn,WindDirection,WindDirectionDegrees,WindSpeedMPH,WindSpeedGustMPH,Humidity,HourlyPrecipIn,Conditions,Clouds,dailyrainin,SolarRadiationWatts/m^2,SoftwareType,DateUTC
2013-05-14 00:05:00,46.5,32.5,30.24,North,11,1.0,2.0,58,0.00,,,0.00,0,Wunderground v.1.15,2013-05-14 04:05:00,
2013-05-14 00:10:00,46.2,33.1,30.23,North,11,1.0,21.0,60,0.00,,,0.00,0,Wunderground v.1.15,2013-05-14 04:10:00,
2013-05-14 00:15:00,45.8,32.7,30.24,North,11,1.0,21.0,60,0.00,,,0.00,0,Wunderground v.1.15,2013-05-14 04:15:00,
2013-05-14 00:20:00,45.7,32.6,30.24,North,11,1.0,1.0,60,0.00,,,0.00,0,Wunderground v.1.15,2013-05-14 04:20:00,
2013-05-14 00:25:00,45.5,33.2,30.24,North,11,1.0,21.0,62,0.00,,,0.00,0,Wunderground v.1.15,2013-05-14 04:25:00,
2013-05-14 00:30:00,45.3,32.6,30.24,North,11,1.0,1.0,61,0.00,,,0.00,0,Wunderground v.1.15,2013-05-14 04:30:00,
2013-05-14 00:36:00,45.2,32.9,30.24,North,11,0.0,21.0,62,0.00,,,0.00,0,Wunderground v.1.15,2013-05-14 04:36:00,
2013-05-14 00:41:00,45.0,33.2,30.24,North,11,0.0,21.0,63,0.00,,,0.00,0,Wunderground v.1.15,2013-05-14 04:41:00,
2013-05-14 00:46:00,44.8,33.0,30.24,North,11,0.0,21.0,63,0.00,,,0.00,0,Wunderground v.1.15,2013-05-14 04:46:00,
2013-05-14 00:51:00,44.8,33.7,30.24,SE,136,1.0,21.0,65,0.00,,,0.00,0,Wunderground v.1.15,2013-05-14 04:51:00,
2013-05-14 00:56:00,44.8,34.1,30.24,SE,141,1.0,21.0,66,0.00,,,0.00,0,Wunderground v.1.15,2013-05-14 04:56:00,
2013-05-14 01:01:00,44.8,34.1,30.24,SE,141,1.0,1.0,66,0.00,,,0.00,0,Wunderground v.1.15,2013-05-14 05:01:00,
2013-05-14 01:11:00,44.1,34.2,30.24,North,355,1.0,21.0,68,0.00,,,0.00,0,Wunderground v.1.15,2013-05-14 05:11:00,
2013-05-14 01:16:00,43.7,34.6,30.24,North,351,2.0,21.0,70,0.00,,,0.00,0,Wunderground v.1.15,2013-05-14 05:16:00,
2013-05-14 01:21:00,43.3,33.4,30.24,North,351,2.0,21.0,68,0.00,,,0.00,0,Wunderground v.1.15,2013-05-14 05:21:00,
2013-05-14 01:26:00,43.2,33.3,30.24,North,351,2.0,21.0,68,0.00,,,0.00,0,Wunderground v.1.15,2013-05-14 05:26:00,
2013-05-14 01:35:00,43.1,33.6,30.24,North,351,1.0,2.0,69,0.00,,,0.00,0,Wunderground v.1.15,2013-05-14 05:35:00,
2013-05-14 01:40:00,43.0,33.5,30.24,North,355,1.0,21.0,69,0.00,,,0.00,0,Wunderground v.1.15,2013-05-14 05:40:00,
2013-05-14 01:45:00,43.1,33.3,30.24,North,355,2.0,21.0,68,0.00,,,0.00,0,Wunderground v.1.15,2013-05-14 05:45:00,
2013-05-14 01:50:00,43.1,33.3,30.24,North,355,2.0,21.0,68,0.00,,,0.00,0,Wunderground v.1.15,2013-05-14 05:50:00,
2013-05-14 01:55:00,43.1,33.3,30.24,North,351,2.0,21.0,68,0.00,,,0.00,0,Wunderground v.1.15,2013-05-14 05:55:00,
2013-05-14 02:00:00,43.1,33.3,30.24,North,350,2.0,2.0,68,0.00,,,0.00,0,Wunderground v.1.15,2013-05-14 06:00:00,
2013-05-14 02:05:00,43.0,33.2,30.24,NNW,335,1.0,21.0,68,0.00,,,0.00,0,Wunderground v.1.15,2013-05-14 06:05:00,
2013-05-14 02:11:00,42.9,33.4,30.24,NNW,335,0.0,21.0,69,0.00,,,0.00,0,Wunderground v.1.15,2013-05-14 06:11:00,
2013-05-14 02:21:00,42.7,35.0,30.24,NNW,335,0.0,21.0,74,0.00,,,0.00,0,Wunderground v.1.15,2013-05-14 06:21:00,
2013-05-14 02:26:00,42.6,34.9,30.24,NNW,335,0.0,21.0,74,0.00,,,0.00,0,Wunderground v.1.15,2013-05-14 06:26:00,
2013-05-14 02:31:00,42.3,34.9,30.25,NNW,335,0.0,21.0,75,0.00,,,0.00,0,Wunderground v.1.15,2013-05-14 06:31:00,
2013-05-14 02:36:00,41.9,35.2,30.25,NNW,335,0.0,21.0,77,0.00,,,0.00,0,Wunderground v.1.15,2013-05-14 06:36:00,
2013-05-14 02:46:00,41.3,34.6,30.25,NW,322,1.0,21.0,77,0.00,,,0.00,0,Wunderground v.1.15,2013-05-14 06:46:00,
2013-05-14 02:51:00,41.3,34.0,30.25,NW,319,0.0,21.0,75,0.00,,,0.00,0,Wunderground v.1.15,2013-05-14 06:51:00,
2013-05-14 02:56:00,41.5,33.8,30.24,NW,319,1.0,21.0,74,0.00,,,0.00,0,Wunderground v.1.15,2013-05-14 06:56:00,
2013-05-14 03:01:00,41.7,33.7,30.24,NNW,327,1.0,21.0,73,0.00,,,0.00,0,Wunderground v.1.15,2013-05-14 07:01:00,
2013-05-14 03:10:00,41.8,33.8,30.24,North,5,1.0,21.0,73,0.00,,,0.00,0,Wunderground v.1.15,2013-05-14 07:10:00,
2013-05-14 03:20:00,41.6,33.9,30.25,NW,312,1.0,21.0,74,0.00,,,0.00,0,Wunderground v.1.15,2013-05-14 07:20:00,
2013-05-14 03:30:00,41.2,33.9,30.25,NW,316,1.0,21.0,75,0.00,,,0.00,0,Wunderground v.1.15,2013-05-14 07:30:00,
2013-05-14 03:35:00,40.9,33.9,30.25,NW,323,1.0,21.0,76,0.00,,,0.00,0,Wunderground v.1.15,2013-05-14 07:35:00,
2013-05-14 03:40:00,40.7,34.0,30.25,NW,323,1.0,21.0,77,0.00,,,0.00,0,Wunderground v.1.15,2013-05-14 07:40:00,
2013-05-14 03:45:00,40.4,34.1,30.25,NW,315,1.0,1.0,78,0.00,,,0.00,0,Wunderground v.1.15,2013-05-14 07:45:00,
2013-05-14 03:55:00,40.1,34.1,30.25,NW,315,0.0,21.0,79,0.00,,,0.00,0,Wunderground v.1.15,2013-05-14 07:55:00,
2013-05-14 04:05:00,39.8,34.1,30.25,NW,316,0.0,21.0,80,0.00,,,0.00,0,Wunderground v.1.15,2013-05-14 08:05:00,
2013-05-14 04:10:00,39.6,33.9,30.25,NW,316,0.0,21.0,80,0.00,,,0.00,0,Wunderground v.1.15,2013-05-14 08:10:00,
2013-05-14 04:15:00,39.4,33.7,30.25,NW,316,0.0,21.0,80,0.00,,,0.00,0,Wunderground v.1.15,2013-05-14 08:15:00,
2013-05-14 04:25:00,39.1,33.8,30.24,NW,316,0.0,21.0,81,0.00,,,0.00,0,Wunderground v.1.15,2013-05-14 08:25:00,
2013-05-14 04:30:00,38.9,33.6,30.25,NW,316,0.0,21.0,81,0.00,,,0.00,0,Wunderground v.1.15,2013-05-14 08:30:00,
2013-05-14 04:35:00,38.8,33.8,30.25,NW,316,0.0,21.0,82,0.00,,,0.00,0,Wunderground v.1.15,2013-05-14 08:35:00,
2013-05-14 04:40:00,38.7,33.7,30.24,NW,316,0.0,21.0,82,0.00,,,0.00,0,Wunderground v.1.15,2013-05-14 08:40:00,
2013-05-14 04:45:00,38.6,33.6,30.24,NW,316,0.0,21.0,82,0.00,,,0.00,0,Wunderground v.1.15,2013-05-14 08:45:00,
2013-05-14 04:55:00,38.4,33.4,30.24,NW,316,0.0,21.0,82,0.00,,,0.00,0,Wunderground v.1.15,2013-05-14 08:55:00,
2013-05-14 05:00:00,38.3,33.6,30.24,NW,316,0.0,21.0,83,0.00,,,0.00,0,Wunderground v.1.15,2013-05-14 09:00:00,
2013-05-14 05:05:00,38.2,33.8,30.24,NW,316,0.0,21.0,84,0.00,,,0.00,0,Wunderground v.1.15,2013-05-14 09:05:00,
2013-05-14 05:15:00,38.0,33.9,30.25,NW,316,0.0,21.0,85,0.00,,,0.00,0,Wunderground v.1.15,2013-05-14 09:15:00,
2013-05-14 05:20:00,37.9,33.8,30.25,NW,316,0.0,21.0,85,0.00,,,0.00,0,Wunderground v.1.15,2013-05-14 09:20:00,
2013-05-14 05:30:00,37.6,33.8,30.25,NW,316,0.0,21.0,86,0.00,,,0.00,0,Wunderground v.1.15,2013-05-14 09:30:00,
2013-05-14 05:35:00,37.5,33.7,30.26,NW,316,0.0,21.0,86,0.00,,,0.00,0,Wunderground v.1.15,2013-05-14 09:35:00,
2013-05-14 05:40:00,37.4,33.9,30.26,NW,316,0.0,21.0,87,0.00,,,0.00,0,Wunderground v.1.15,2013-05-14 09:40:00,
2013-05-14 05:45:00,37.3,33.8,30.26,NW,316,0.0,21.0,87,0.00,,,0.00,0,Wunderground v.1.15,2013-05-14 09:45:00,
2013-05-14 05:50:00,37.2,34.0,30.26,NW,316,0.0,21.0,88,0.00,,,0.00,0,Wunderground v.1.15,2013-05-14 09:50:00,
2013-05-14 06:00:00,37.0,33.8,30.26,NW,316,0.0,21.0,88,0.00,,,0.00,0,Wunderground v.1.15,2013-05-14 10:00:00,
2013-05-14 06:05:00,36.9,33.7,30.26,NW,316,0.0,21.0,88,0.00,,,0.00,0,Wunderground v.1.15,2013-05-14 10:05:00,
2013-05-14 06:15:00,37.0,33.5,30.27,NW,316,0.0,21.0,87,0.00,,,0.00,9,Wunderground v.1.15,2013-05-14 10:15:00,
2013-05-14 06:20:00,37.1,33.6,30.27,NW,316,0.0,21.0,87,0.00,,,0.00,9,Wunderground v.1.15,2013-05-14 10:20:00,
2013-05-14 06:30:00,37.1,33.3,30.27,NW,316,0.0,21.0,86,0.00,,,0.00,16,Wunderground v.1.15,2013-05-14 10:30:00,
2013-05-14 06:35:00,37.1,33.3,30.27,NW,316,0.0,21.0,86,0.00,,,0.00,18,Wunderground v.1.15,2013-05-14 10:35:00,
2013-05-14 06:40:00,37.1,33.6,30.27,NW,316,0.0,21.0,87,0.00,,,0.00,30,Wunderground v.1.15,2013-05-14 10:40:00,
2013-05-14 06:45:00,37.2,33.7,30.27,NW,316,0.0,21.0,87,0.00,,,0.00,67,Wunderground v.1.15,2013-05-14 10:45:00,
2013-05-14 06:50:00,37.5,34.0,30.28,NW,316,0.0,21.0,87,0.00,,,0.00,91,Wunderground v.1.15,2013-05-14 10:50:00,
2013-05-14 06:55:00,37.9,34.1,30.28,NW,316,0.0,21.0,86,0.00,,,0.00,107,Wunderground v.1.15,2013-05-14 10:55:00,
2013-05-14 07:05:00,38.8,35.0,30.28,NW,316,0.0,21.0,86,0.00,,,0.00,141,Wunderground v.1.15,2013-05-14 11:05:00,
2013-05-14 07:10:00,39.4,35.3,30.28,NW,316,0.0,21.0,85,0.00,,,0.00,148,Wunderground v.1.15,2013-05-14 11:10:00,
2013-05-14 07:15:00,40.5,36.0,30.28,NW,316,0.0,21.0,84,0.00,,,0.00,174,Wunderground v.1.15,2013-05-14 11:15:00,
2013-05-14 07:20:00,41.4,36.0,30.28,NW,316,0.0,21.0,81,0.00,,,0.00,197,Wunderground v.1.15,2013-05-14 11:20:00,
2013-05-14 07:25:00,42.2,36.5,30.28,NW,316,0.0,21.0,80,0.00,,,0.00,220,Wunderground v.1.15,2013-05-14 11:25:00,
2013-05-14 07:35:00,43.6,36.9,30.27,NW,316,0.0,21.0,77,0.00,,,0.00,276,Wunderground v.1.15,2013-05-14 11:35:00,
2013-05-14 07:40:00,44.3,36.9,30.27,NW,316,0.0,21.0,75,0.00,,,0.00,301,Wunderground v.1.15,2013-05-14 11:40:00,
2013-05-14 07:45:00,44.9,37.1,30.27,NW,316,0.0,21.0,74,0.00,,,0.00,276,Wunderground v.1.15,2013-05-14 11:45:00,
2013-05-14 07:50:00,45.4,37.2,30.27,NW,316,0.0,21.0,73,0.00,,,0.00,264,Wunderground v.1.15,2013-05-14 11:50:00,
2013-05-14 07:55:00,45.6,37.1,30.27,NW,316,0.0,21.0,72,0.00,,,0.00,287,Wunderground v.1.15,2013-05-14 11:55:00,
2013-05-14 08:05:00,46.1,37.6,30.27,West,273,1.0,21.0,72,0.00,,,0.00,366,Wunderground v.1.15,2013-05-14 12:05:00,
2013-05-14 08:10:00,46.4,37.5,30.28,West,273,1.0,21.0,71,0.00,,,0.00,371,Wunderground v.1.15,2013-05-14 12:10:00,
2013-05-14 08:15:00,47.0,37.7,30.28,West,273,1.0,21.0,70,0.00,,,0.00,387,Wunderground v.1.15,2013-05-14 12:15:00,
2013-05-14 08:20:00,47.4,37.7,30.28,West,273,1.0,1.0,69,0.00,,,0.00,404,Wunderground v.1.15,2013-05-14 12:20:00,
2013-05-14 08:25:00,48.1,38.0,30.28,WSW,257,1.0,21.0,68,0.00,,,0.00,445,Wunderground v.1.15,2013-05-14 12:25:00,
2013-05-14 08:30:00,48.6,37.7,30.28,SW,228,1.0,21.0,66,0.00,,,0.00,464,Wunderground v.1.15,2013-05-14 12:30:00,
2013-05-14 08:40:00,49.6,39.1,30.28,SW,229,1.0,1.0,67,0.00,,,0.00,496,Wunderground v.1.15,2013-05-14 12:40:00,
2013-05-14 08:45:00,50.1,38.8,30.28,SW,229,1.0,21.0,65,0.00,,,0.00,519,Wunderground v.1.15,2013-05-14 12:45:00,
2013-05-14 08:50:00,51.0,38.4,30.28,SW,229,1.0,21.0,62,0.00,,,0.00,527,Wunderground v.1.15,2013-05-14 12:50:00,
2013-05-14 08:55:00,51.5,38.5,30.27,SSE,155,1.0,21.0,61,0.00,,,0.00,548,Wunderground v.1.15,2013-05-14 12:55:00,
2013-05-14 09:00:00,51.7,38.7,30.27,SE,140,2.0,2.0,61,0.00,,,0.00,555,Wunderground v.1.15,2013-05-14 13:00:00,
2013-05-14 09:10:00,52.1,37.3,30.27,WSW,256,2.0,21.0,57,0.00,,,0.00,605,Wunderground v.1.15,2013-05-14 13:10:00,
2013-05-14 09:15:00,52.1,36.4,30.27,SSW,201,2.0,21.0,55,0.00,,,0.00,605,Wunderground v.1.15,2013-05-14 13:15:00,
2013-05-14 09:20:00,52.6,36.4,30.27,West,280,2.0,21.0,54,0.00,,,0.00,585,Wunderground v.1.15,2013-05-14 13:20:00,
2013-05-14 09:25:00,53.1,35.4,30.27,WNW,296,3.0,21.0,51,0.00,,,0.00,645,Wunderground v.1.15,2013-05-14 13:25:00,
2013-05-14 09:35:00,54.4,35.6,30.26,SW,225,3.0,5.0,49,0.00,,,0.00,670,Wunderground v.1.15,2013-05-14 13:35:00,
2013-05-14 09:40:00,54.4,36.6,30.26,WNW,288,3.0,21.0,51,0.00,,,0.00,673,Wunderground v.1.15,2013-05-14 13:40:00,
2013-05-14 09:50:00,54.8,35.5,30.26,WSW,240,3.0,3.0,48,0.00,,,0.00,715,Wunderground v.1.15,2013-05-14 13:50:00,
2013-05-14 09:55:00,54.8,36.0,30.26,WNW,299,3.0,21.0,49,0.00,,,0.00,729,Wunderground v.1.15,2013-05-14 13:55:00,
2013-05-14 10:00:00,55.0,35.7,30.26,WSW,238,3.0,3.0,48,0.00,,,0.00,712,Wunderground v.1.15,2013-05-14 14:00:00,
2013-05-14 10:05:00,55.3,35.9,30.26,WSW,257,3.0,21.0,48,0.00,,,0.00,766,Wunderground v.1.15,2013-05-14 14:05:00,
2013-05-14 10:15:00,56.0,36.0,30.25,West,272,3.0,3.0,47,0.00,,,0.00,803,Wunderground v.1.15,2013-05-14 14:15:00,
2013-05-14 10:20:00,56.7,36.1,30.25,NW,309,3.0,21.0,46,0.00,,,0.00,893,Wunderground v.1.15,2013-05-14 14:20:00,
2013-05-14 10:25:00,56.3,34.6,30.26,NW,313,3.0,21.0,44,0.00,,,0.00,847,Wunderground v.1.15,2013-05-14 14:25:00,
2013-05-14 10:30:00,56.2,34.6,30.25,WSW,240,4.0,4.0,44,0.00,,,0.00,826,Wunderground v.1.15,2013-05-14 14:30:00,
2013-05-14 10:35:00,56.3,35.2,30.25,WSW,240,3.0,21.0,45,0.00,,,0.00,831,Wunderground v.1.15,2013-05-14 14:35:00,
2013-05-14 10:45:00,57.9,34.9,30.24,NNW,342,3.0,21.0,42,0.00,,,0.00,849,Wunderground v.1.15,2013-05-14 14:45:00,
2013-05-14 10:50:00,58.5,35.5,30.24,West,259,4.0,21.0,42,0.00,,,0.00,807,Wunderground v.1.15,2013-05-14 14:50:00,
2013-05-14 10:55:00,58.7,33.8,30.24,West,259,3.0,21.0,39,0.00,,,0.00,835,Wunderground v.1.15,2013-05-14 14:55:00,
2013-05-14 11:00:00,59.1,35.4,30.24,WNW,287,3.0,3.0,41,0.00,,,0.00,896,Wunderground v.1.15,2013-05-14 15:00:00,
2013-05-14 11:05:00,58.9,35.2,30.24,West,264,4.0,8.0,41,0.00,,,0.00,928,Wunderground v.1.15,2013-05-14 15:05:00,
2013-05-14 11:10:00,59.0,33.4,30.23,North,355,6.0,6.0,38,0.00,,,0.00,791,Wunderground v.1.15,2013-05-14 15:10:00,
2013-05-14 11:15:00,59.0,34.7,30.23,ENE,69,4.0,21.0,40,0.00,,,0.00,689,Wunderground v.1.15,2013-05-14 15:15:00,
2013-05-14 11:20:00,59.3,34.3,30.23,NW,311,3.0,21.0,39,0.00,,,0.00,944,Wunderground v.1.15,2013-05-14 15:20:00,
2013-05-14 11:25:00,59.6,34.6,30.23,West,265,3.0,21.0,39,0.00,,,0.00,951,Wunderground v.1.15,2013-05-14 15:25:00,
2013-05-14 11:30:00,60.0,35.0,30.23,NW,304,3.0,21.0,39,0.00,,,0.00,940,Wunderground v.1.15,2013-05-14 15:30:00,
2013-05-14 11:35:00,59.9,34.2,30.22,West,280,6.0,21.0,38,0.00,,,0.00,962,Wunderground v.1.15,2013-05-14 15:35:00,
2013-05-14 11:45:00,60.1,34.4,30.22,SE,126,4.0,21.0,38,0.00,,,0.00,977,Wunderground v.1.15,2013-05-14 15:45:00,
2013-05-14 11:50:00,61.1,35.9,30.21,SSE,158,3.0,3.0,39,0.00,,,0.00,984,Wunderground v.1.15,2013-05-14 15:50:00,
2013-05-14 11:55:00,61.5,35.0,30.22,WSW,254,3.0,21.0,37,0.00,,,0.00,956,Wunderground v.1.15,2013-05-14 15:55:00,
2013-05-14 12:05:00,61.8,35.9,30.21,WNW,302,4.0,4.0,38,0.00,,,0.00,988,Wunderground v.1.15,2013-05-14 16:05:00,
2013-05-14 12:10:00,61.6,34.4,30.21,SE,132,4.0,4.0,36,0.00,,,0.00,991,Wunderground v.1.15,2013-05-14 16:10:00,
2013-05-14 12:20:00,61.8,34.5,30.21,SE,126,3.0,21.0,36,0.00,,,0.00,1009,Wunderground v.1.15,2013-05-14 16:20:00,
2013-05-14 12:25:00,61.8,35.2,30.20,South,180,4.0,21.0,37,0.00,,,0.00,1023,Wunderground v.1.15,2013-05-14 16:25:00,
2013-05-14 12:30:00,62.0,34.7,30.21,WNW,283,4.0,21.0,36,0.00,,,0.00,1025,Wunderground v.1.15,2013-05-14 16:30:00,
2013-05-14 12:40:00,62.2,35.6,30.20,WSW,241,4.0,4.0,37,0.00,,,0.00,1032,Wunderground v.1.15,2013-05-14 16:40:00,
2013-05-14 12:50:00,62.6,35.3,30.19,SSE,161,3.0,21.0,36,0.00,,,0.00,1063,Wunderground v.1.15,2013-05-14 16:50:00,
2013-05-14 12:55:00,63.1,35.7,30.19,SSE,167,3.0,21.0,36,0.00,,,0.00,1044,Wunderground v.1.15,2013-05-14 16:55:00,
2013-05-14 13:00:00,63.7,35.5,30.19,WNW,302,6.0,21.0,35,0.00,,,0.00,1148,Wunderground v.1.15,2013-05-14 17:00:00,
2013-05-14 13:05:00,63.9,35.0,30.18,NW,304,6.0,21.0,34,0.00,,,0.00,1232,Wunderground v.1.15,2013-05-14 17:05:00,
2013-05-14 13:10:00,63.6,35.4,30.19,West,267,7.0,7.0,35,0.00,,,0.00,548,Wunderground v.1.15,2013-05-14 17:10:00,
2013-05-14 13:20:00,64.3,36.8,30.18,West,261,3.0,21.0,36,0.00,,,0.00,1192,Wunderground v.1.15,2013-05-14 17:20:00,
2013-05-14 13:25:00,64.7,36.4,30.18,West,281,4.0,21.0,35,0.00,,,0.00,1106,Wunderground v.1.15,2013-05-14 17:25:00,
2013-05-14 13:30:00,64.4,33.1,30.18,South,170,6.0,6.0,31,0.00,,,0.00,717,Wunderground v.1.15,2013-05-14 17:30:00,
2013-05-14 13:40:00,64.3,34.6,30.17,WNW,298,5.0,21.0,33,0.00,,,0.00,591,Wunderground v.1.15,2013-05-14 17:40:00,
2013-05-14 13:45:00,64.3,34.6,30.17,North,360,4.0,21.0,33,0.00,,,0.00,663,Wunderground v.1.15,2013-05-14 17:45:00,
2013-05-14 13:55:00,65.2,35.4,30.18,NW,306,5.0,21.0,33,0.00,,,0.00,1027,Wunderground v.1.15,2013-05-14 17:55:00,
2013-05-14 14:00:00,65.1,34.5,30.17,WSW,248,6.0,6.0,32,0.00,,,0.00,1000,Wunderground v.1.15,2013-05-14 18:00:00,
2013-05-14 14:05:00,65.3,34.7,30.17,West,274,6.0,9.0,32,0.00,,,0.00,990,Wunderground v.1.15,2013-05-14 18:05:00,
2013-05-14 14:10:00,65.4,34.8,30.17,WNW,284,6.0,21.0,32,0.00,,,0.00,1062,Wunderground v.1.15,2013-05-14 18:10:00,
2013-05-14 14:20:00,65.8,35.1,30.16,WNW,302,5.0,21.0,32,0.00,,,0.00,626,Wunderground v.1.15,2013-05-14 18:20:00,
2013-05-14 14:30:00,65.5,34.0,30.15,North,351,6.0,6.0,31,0.00,,,0.00,1037,Wunderground v.1.15,2013-05-14 18:30:00,
2013-05-14 14:35:00,66.1,34.6,30.15,WNW,285,6.0,21.0,31,0.00,,,0.00,1063,Wunderground v.1.15,2013-05-14 18:35:00,
2013-05-14 14:40:00,66.1,34.6,30.15,NNW,344,5.0,5.0,31,0.00,,,0.00,494,Wunderground v.1.15,2013-05-14 18:40:00,
2013-05-14 14:45:00,66.5,34.9,30.15,WNW,295,5.0,7.0,31,0.00,,,0.00,566,Wunderground v.1.15,2013-05-14 18:45:00,
2013-05-14 14:55:00,66.2,34.7,30.14,NNW,332,3.0,21.0,31,0.00,,,0.00,320,Wunderground v.1.15,2013-05-14 18:55:00,
2013-05-14 15:00:00,66.3,34.7,30.13,WNW,294,2.0,2.0,31,0.00,,,0.00,366,Wunderground v.1.15,2013-05-14 19:00:00,
2013-05-14 15:05:00,66.4,34.0,30.13,SW,231,2.0,21.0,30,0.00,,,0.00,431,Wunderground v.1.15,2013-05-14 19:05:00,
2013-05-14 15:10:00,67.0,35.3,30.13,WSW,243,3.0,21.0,31,0.00,,,0.00,979,Wunderground v.1.15,2013-05-14 19:10:00,
2013-05-14 15:15:00,67.6,34.2,30.13,West,275,3.0,21.0,29,0.00,,,0.00,916,Wunderground v.1.15,2013-05-14 19:15:00,
2013-05-14 15:20:00,68.2,34.7,30.12,WNW,285,3.0,21.0,29,0.00,,,0.00,990,Wunderground v.1.15,2013-05-14 19:20:00,
2013-05-14 15:30:00,67.9,34.4,30.12,WNW,297,6.0,6.0,29,0.00,,,0.00,875,Wunderground v.1.15,2013-05-14 19:30:00,
2013-05-14 15:35:00,68.4,35.7,30.12,WSW,257,5.0,21.0,30,0.00,,,0.00,573,Wunderground v.1.15,2013-05-14 19:35:00,
2013-05-14 15:40:00,68.2,35.6,30.12,NNW,341,5.0,21.0,30,0.00,,,0.00,947,Wunderground v.1.15,2013-05-14 19:40:00,
2013-05-14 15:45:00,68.5,35.8,30.12,West,266,5.0,21.0,30,0.00,,,0.00,935,Wunderground v.1.15,2013-05-14 19:45:00,
2013-05-14 15:50:00,68.7,36.0,30.12,SSW,208,4.0,21.0,30,0.00,,,0.00,837,Wunderground v.1.15,2013-05-14 19:50:00,
2013-05-14 16:00:00,68.2,35.6,30.12,WSW,238,4.0,4.0,30,0.00,,,0.00,332,Wunderground v.1.15,2013-05-14 20:00:00,
2013-05-14 16:05:00,67.4,35.7,30.12,WNW,290,5.0,5.0,31,0.00,,,0.00,851,Wunderground v.1.15,2013-05-14 20:05:00,
2013-05-14 16:15:00,69.0,37.9,30.11,SW,227,3.0,7.0,32,0.00,,,0.00,703,Wunderground v.1.15,2013-05-14 20:15:00,
2013-05-14 16:20:00,68.9,35.3,30.11,West,265,4.0,4.0,29,0.00,,,0.00,686,Wunderground v.1.15,2013-05-14 20:20:00,
2013-05-14 16:25:00,68.7,36.8,30.10,WNW,283,4.0,21.0,31,0.00,,,0.00,666,Wunderground v.1.15,2013-05-14 20:25:00,
2013-05-14 16:30:00,69.1,36.3,30.10,WNW,287,4.0,4.0,30,0.00,,,0.00,657,Wunderground v.1.15,2013-05-14 20:30:00,
2013-05-14 16:35:00,69.0,36.3,30.10,South,169,4.0,21.0,30,0.00,,,0.00,656,Wunderground v.1.15,2013-05-14 20:35:00,
2013-05-14 16:40:00,69.0,37.1,30.10,West,259,3.0,21.0,31,0.00,,,0.00,657,Wunderground v.1.15,2013-05-14 20:40:00,
2013-05-14 16:45:00,69.0,37.1,30.10,WNW,283,4.0,21.0,31,0.00,,,0.00,207,Wunderground v.1.15,2013-05-14 20:45:00,
2013-05-14 16:50:00,68.8,37.7,30.10,WSW,249,4.0,21.0,32,0.00,,,0.00,239,Wunderground v.1.15,2013-05-14 20:50:00,
2013-05-14 16:55:00,68.7,38.4,30.10,WSW,242,3.0,21.0,33,0.00,,,0.00,250,Wunderground v.1.15,2013-05-14 20:55:00,
2013-05-14 17:05:00,69.0,37.1,30.10,SSW,213,3.0,21.0,31,0.00,,,0.00,533,Wunderground v.1.15,2013-05-14 21:05:00,
2013-05-14 17:10:00,69.2,38.1,30.10,West,259,2.0,21.0,32,0.00,,,0.00,513,Wunderground v.1.15,2013-05-14 21:10:00,
2013-05-14 17:15:00,69.5,38.3,30.09,SW,219,2.0,21.0,32,0.00,,,0.00,482,Wunderground v.1.15,2013-05-14 21:15:00,
2013-05-14 17:25:00,69.8,37.8,30.09,SSW,194,4.0,21.0,31,0.00,,,0.00,476,Wunderground v.1.15,2013-05-14 21:25:00,
2013-05-14 17:35:00,69.9,37.9,30.08,WSW,248,4.0,21.0,31,0.00,,,0.00,526,Wunderground v.1.15,2013-05-14 21:35:00,
2013-05-14 17:40:00,69.9,36.2,30.08,WSW,256,3.0,21.0,29,0.00,,,0.00,424,Wunderground v.1.15,2013-05-14 21:40:00,
2013-05-14 17:45:00,70.1,36.3,30.08,WSW,248,4.0,21.0,29,0.00,,,0.00,429,Wunderground v.1.15,2013-05-14 21:45:00,
2013-05-14 17:50:00,70.4,37.5,30.08,SSW,209,4.0,4.0,30,0.00,,,0.00,429,Wunderground v.1.15,2013-05-14 21:50:00,
2013-05-14 17:55:00,70.3,37.4,30.09,NW,325,5.0,11.0,30,0.00,,,0.00,445,Wunderground v.1.15,2013-05-14 21:55:00,
2013-05-14 18:05:00,69.6,38.4,30.08,SW,216,7.0,7.0,32,0.00,,,0.00,364,Wunderground v.1.15,2013-05-14 22:05:00,
2013-05-14 18:10:00,69.4,38.2,30.08,NW,306,7.0,7.0,32,0.00,,,0.00,225,Wunderground v.1.15,2013-05-14 22:10:00,
2013-05-14 18:15:00,69.3,38.2,30.08,WNW,283,6.0,21.0,32,0.00,,,0.00,258,Wunderground v.1.15,2013-05-14 22:15:00,
2013-05-14 18:20:00,69.2,38.9,30.07,West,264,5.0,5.0,33,0.00,,,0.00,338,Wunderground v.1.15,2013-05-14 22:20:00,
2013-05-14 18:25:00,69.5,39.1,30.08,West,265,5.0,21.0,33,0.00,,,0.00,271,Wunderground v.1.15,2013-05-14 22:25:00,
2013-05-14 18:35:00,68.8,39.3,30.07,NNW,328,6.0,21.0,34,0.00,,,0.00,62,Wunderground v.1.15,2013-05-14 22:35:00,
2013-05-14 18:40:00,68.8,40.0,30.07,West,269,4.0,21.0,35,0.00,,,0.00,253,Wunderground v.1.15,2013-05-14 22:40:00,
2013-05-14 18:45:00,68.8,40.0,30.08,WSW,251,4.0,21.0,35,0.00,,,0.00,91,Wunderground v.1.15,2013-05-14 22:45:00,
2013-05-14 18:50:00,68.7,39.9,30.08,WNW,296,4.0,4.0,35,0.00,,,0.00,58,Wunderground v.1.15,2013-05-14 22:50:00,
2013-05-14 18:55:00,68.5,40.5,30.08,WNW,283,4.0,21.0,36,0.00,,,0.00,113,Wunderground v.1.15,2013-05-14 22:55:00,
2013-05-14 19:05:00,68.6,40.6,30.07,West,264,3.0,21.0,36,0.00,,,0.00,104,Wunderground v.1.15,2013-05-14 23:05:00,
2013-05-14 19:10:00,68.5,41.2,30.07,West,270,3.0,21.0,37,0.00,,,0.00,81,Wunderground v.1.15,2013-05-14 23:10:00,
2013-05-14 19:15:00,68.3,41.0,30.07,SW,221,3.0,21.0,37,0.00,,,0.00,69,Wunderground v.1.15,2013-05-14 23:15:00,
2013-05-14 19:25:00,67.9,40.7,30.07,SW,219,4.0,4.0,37,0.00,,,0.00,30,Wunderground v.1.15,2013-05-14 23:25:00,
2013-05-14 19:30:00,67.7,41.2,30.07,WSW,255,4.0,4.0,38,0.00,,,0.00,21,Wunderground v.1.15,2013-05-14 23:30:00,
2013-05-14 19:40:00,67.2,40.0,30.06,NW,308,4.0,21.0,37,0.00,,,0.00,18,Wunderground v.1.15,2013-05-14 23:40:00,
2013-05-14 19:45:00,67.0,40.5,30.06,WNW,284,4.0,21.0,38,0.00,,,0.00,16,Wunderground v.1.15,2013-05-14 23:45:00,
2013-05-14 19:50:00,66.8,40.4,30.06,WNW,285,3.0,3.0,38,0.00,,,0.00,14,Wunderground v.1.15,2013-05-14 23:50:00,
2013-05-14 19:55:00,66.6,40.2,30.07,WNW,290,4.0,4.0,38,0.00,,,0.00,7,Wunderground v.1.15,2013-05-14 23:55:00,
2013-05-14 20:00:00,66.6,40.2,30.09,NW,304,3.0,3.0,38,0.00,,,0.00,0,Wunderground v.1.15,2013-05-15 00:00:00,
2013-05-14 20:05:00,66.5,40.8,30.09,WSW,247,3.0,5.0,39,0.00,,,0.00,0,Wunderground v.1.15,2013-05-15 00:05:00,
2013-05-14 20:15:00,66.3,40.6,30.07,WSW,254,3.0,21.0,39,0.00,,,0.00,0,Wunderground v.1.15,2013-05-15 00:15:00,
2013-05-14 20:20:00,66.2,40.5,30.06,West,262,2.0,21.0,39,0.00,,,0.00,0,Wunderground v.1.15,2013-05-15 00:20:00,
2013-05-14 20:25:00,66.0,41.0,30.07,West,277,2.0,21.0,40,0.00,,,0.00,0,Wunderground v.1.15,2013-05-15 00:25:00,
2013-05-14 20:30:00,65.8,40.1,30.07,SW,221,3.0,21.0,39,0.00,,,0.00,0,Wunderground v.1.15,2013-05-15 00:30:00,
2013-05-14 20:35:00,65.6,40.6,30.07,WNW,288,4.0,21.0,40,0.00,,,0.00,0,Wunderground v.1.15,2013-05-15 00:35:00,
2013-05-14 20:40:00,65.4,40.4,30.07,WSW,254,4.0,21.0,40,0.00,,,0.00,0,Wunderground v.1.15,2013-05-15 00:40:00,
2013-05-14 20:45:00,65.2,40.3,30.08,WSW,248,4.0,21.0,40,0.00,,,0.00,0,Wunderground v.1.15,2013-05-15 00:45:00,
2013-05-14 20:50:00,65.1,40.2,30.08,WSW,244,3.0,21.0,40,0.00,,,0.00,0,Wunderground v.1.15,2013-05-15 00:50:00,
2013-05-14 21:00:00,64.8,40.5,30.08,WSW,240,2.0,2.0,41,0.00,,,0.00,0,Wunderground v.1.15,2013-05-15 01:00:00,
2013-05-14 21:05:00,64.7,40.4,30.08,WSW,253,2.0,21.0,41,0.00,,,0.00,0,Wunderground v.1.15,2013-05-15 01:05:00,
2013-05-14 21:15:00,64.3,40.7,30.07,SW,221,2.0,4.0,42,0.00,,,0.00,0,Wunderground v.1.15,2013-05-15 01:15:00,
2013-05-14 21:20:00,64.2,40.6,30.07,West,261,2.0,2.0,42,0.00,,,0.00,0,Wunderground v.1.15,2013-05-15 01:20:00,
2013-05-14 21:25:00,64.0,41.0,30.07,WSW,238,2.0,21.0,43,0.00,,,0.00,0,Wunderground v.1.15,2013-05-15 01:25:00,
2013-05-14 21:30:00,63.7,40.8,30.07,West,260,1.0,1.0,43,0.00,,,0.00,0,Wunderground v.1.15,2013-05-15 01:30:00,
2013-05-14 21:35:00,63.5,41.2,30.08,West,263,1.0,21.0,44,0.00,,,0.00,0,Wunderground v.1.15,2013-05-15 01:35:00,
2013-05-14 21:45:00,63.2,40.9,30.08,WSW,246,2.0,21.0,44,0.00,,,0.00,0,Wunderground v.1.15,2013-05-15 01:45:00,
2013-05-14 21:50:00,63.1,40.8,30.08,WSW,251,3.0,21.0,44,0.00,,,0.00,0,Wunderground v.1.15,2013-05-15 01:50:00,
2013-05-14 21:55:00,63.0,41.3,30.08,WNW,286,3.0,21.0,45,0.00,,,0.00,0,Wunderground v.1.15,2013-05-15 01:55:00,
2013-05-14 22:00:00,62.8,41.1,30.08,WNW,292,3.0,21.0,45,0.00,,,0.00,0,Wunderground v.1.15,2013-05-15 02:00:00,
2013-05-14 22:05:00,62.7,41.6,30.09,WNW,286,3.0,21.0,46,0.00,,,0.00,0,Wunderground v.1.15,2013-05-15 02:05:00,
2013-05-14 22:15:00,62.3,41.2,30.08,West,263,3.0,21.0,46,0.00,,,0.00,0,Wunderground v.1.15,2013-05-15 02:15:00,
2013-05-14 22:20:00,62.2,41.7,30.08,WNW,294,3.0,21.0,47,0.00,,,0.00,0,Wunderground v.1.15,2013-05-15 02:20:00,
2013-05-14 22:25:00,62.0,41.5,30.08,WNW,290,3.0,21.0,47,0.00,,,0.00,0,Wunderground v.1.15,2013-05-15 02:25:00,
2013-05-14 22:30:00,61.9,42.0,30.09,West,277,3.0,3.0,48,0.00,,,0.00,0,Wunderground v.1.15,2013-05-15 02:30:00,
2013-05-14 22:35:00,61.8,41.9,30.09,WNW,299,3.0,21.0,48,0.00,,,0.00,0,Wunderground v.1.15,2013-05-15 02:35:00,
2013-05-14 22:40:00,61.8,41.9,30.08,WSW,242,3.0,3.0,48,0.00,,,0.00,0,Wunderground v.1.15,2013-05-15 02:40:00,
2013-05-14 22:50:00,61.8,42.4,30.08,West,269,2.0,21.0,49,0.00,,,0.00,0,Wunderground v.1.15,2013-05-15 02:50:00,
2013-05-14 22:55:00,61.8,42.4,30.07,West,261,2.0,21.0,49,0.00,,,0.00,0,Wunderground v.1.15,2013-05-15 02:55:00,
2013-05-14 23:00:00,61.8,42.4,30.07,SW,225,2.0,21.0,49,0.00,,,0.00,0,Wunderground v.1.15,2013-05-15 03:00:00,
2013-05-14 23:05:00,61.8,42.4,30.07,West,281,1.0,21.0,49,0.00,,,0.00,0,Wunderground v.1.15,2013-05-15 03:05:00,
2013-05-14 23:15:00,61.8,42.4,30.08,West,267,1.0,21.0,49,0.00,,,0.00,0,Wunderground v.1.15,2013-05-15 03:15:00,
2013-05-14 23:25:00,61.8,42.4,30.07,West,271,1.0,21.0,49,0.00,,,0.00,0,Wunderground v.1.15,2013-05-15 03:25:00,
2013-05-14 23:30:00,61.8,42.4,30.08,West,271,1.0,1.0,49,0.00,,,0.00,0,Wunderground v.1.15,2013-05-15 03:30:00,
2013-05-14 23:35:00,61.8,42.4,30.08,West,271,0.0,21.0,49,0.00,,,0.00,0,Wunderground v.1.15,2013-05-15 03:35:00,
2013-05-14 23:40:00,61.7,42.3,30.08,West,271,0.0,21.0,49,0.00,,,0.00,0,Wunderground v.1.15,2013-05-15 03:40:00,
2013-05-14 23:45:00,61.7,42.3,30.08,West,259,1.0,21.0,49,0.00,,,0.00,0,Wunderground v.1.15,2013-05-15 03:45:00,
2013-05-14 23:55:00,61.6,42.8,30.07,West,260,1.0,21.0,50,0.00,,,0.00,0,Wunderground v.1.15,2013-05-15 03:55:00,